Location: Newark
(59.4564°N, 26.6917°E)
Time: 04:19:44
(UTC+00:00)

S-56A Canister/Altair - Pass Details

Date: 19 November 2019
Orbit: 632 x 2500 km, 38.9° (Epoch: 14 December)

Event Time Altitude Azimuth Distance (km) Brightness Sun altitude
Rises 17:32:47 0° 237° (WSW) 4,427 12.1 -28.6°
Reaches altitude 10° 17:38:30 10° 209° (SSW) 2,961 10.7 -29.3°
Maximum altitude 17:40:39 12° 191° (S) 2,668 10.3 -29.6°
Enters shadow 17:41:13 11° 185° (S) 2,631 10.2 -29.7°
Drops below altitude 10° 17:42:37 10° 172° (S) 2,624 - -29.8°
Sets 17:46:48 0° 139° (SE) 3,257 - -30.4°
